Weather History for KJKL - January, 2014

Change the Weather History Date:

Tuesday, January 7, 2014

  Actual Average Record
Temperature  
Mean Temperature 3 °F 35 °F  
Max Temperature 12 °F 43 °F 71 °F (2008)
Min Temperature -7 °F 27 °F -7 °F (2014)
Degree Days  
Heating Degree Days 62 30  
Month to date heating degree days 279 210  
Since 1 July heating degree days 1924 1844  
Cooling Degree Days 0 0  
Month to date cooling degree days 0 0  
Year to date cooling degree days 0 0  
Moisture  
Dew Point -8 °F    
Average Humidity 64    
Maximum Humidity 75    
Minimum Humidity 52    
Precipitation  
Precipitation T in 0.11 in 1.83 in (1994)
Month to date precipitation 0.87 0.81  
Year to date precipitation 0.87 0.81  
Snow  
Snow T in 0.30 in 7.20 in (1996)
Month to date snowfall 3.3 1.5  
Since 1 July snowfall 7.6 7.0  
Snow Depth 1.00 in    
Sea Level Pressure  
Sea Level Pressure 30.46 in    
Wind  
Wind Speed 5 mph (SW)    
Max Wind Speed 14 mph    
Max Gust Speed 20 mph    
Visibility 9 miles    
Events Snow    
T = Trace of Precipitation, MM = Missing Value Source: NWS Daily Summary

Daily Weather History Graph

Daily Weather History Graph

Search for Another Location

Airport or City:

Trip Planner

Search our weather history database for the weather conditions in past years. The results will help you decide how hot, cold, wet, or windy it might be!

Date:

Astronomy

Jan. 07, 2014 Rise Set
Actual Time 7:48 AM EST 5:30 PM EST
Civil Twilight 7:19 AM EST 5:59 PM EST
Nautical Twilight 6:47 AM EST 6:32 PM EST
Astronomical Twilight 6:15 AM EST 7:04 PM EST
Moon 11:45 AM EST (1/7) No Moon Set
Length of Visible Light 10h 40m
Length of Day
9h 42m
Waxing Crescent, 45% of the Moon is Illuminated
Jan 7
Waxing Crescent
Jan 7
First Quarter
Jan 15
Full
Jan 24
Last Quarter
Jan 30
New

Hourly Weather History & Observations

Time (EST) Temp. Windchill Dew Point Humidity Pressure Visibility Wind Dir Wind Speed Gust Speed Precip Events Conditions
12:53 AM -4.0 °F -20.2 °F -9.9 °F 76% 30.45 in 2.5 mi West 9.2 mph 18.4 mph 0.00 in Snow Light Snow
1:00 AM -4.0 °F -19.0 °F -9.9 °F 76% 30.35 in 1.5 mi West 8.1 mph 18.4 mph 0.00 in Snow Light Snow
1:14 AM -2.9 °F -15.0 °F -8.0 °F 79% 30.36 in 0.8 mi Variable 5.8 mph - 0.00 in Snow Light Snow
1:23 AM -2.9 °F -16.5 °F -9.0 °F 75% 30.36 in 1.5 mi WSW 6.9 mph - 0.00 in Snow Light Snow
1:25 AM -4.0 °F -16.3 °F -9.0 °F 79% 30.36 in 2.0 mi Variable 5.8 mph - 0.00 in Snow Light Snow
1:33 AM -4.0 °F -14.6 °F -11.0 °F 72% 30.36 in 9.0 mi Variable 4.6 mph - 0.00 in   Overcast
1:44 AM -4.0 °F -16.3 °F -11.9 °F 69% 30.36 in 10.0 mi Variable 5.8 mph 18.4 mph 0.00 in   Overcast
1:53 AM -4.0 °F -22.1 °F -11.9 °F 69% 30.46 in 10.0 mi West 11.5 mph 16.1 mph 0.00 in   Overcast
2:53 AM -5.1 °F -17.6 °F -11.9 °F 72% 30.49 in 8.0 mi WSW 5.8 mph - 0.00 in   Overcast
3:28 AM -6.0 °F -18.6 °F -14.1 °F 68% 30.40 in 10.0 mi WSW 5.8 mph 18.4 mph N/A   Scattered Clouds
3:53 AM -6.0 °F -20.1 °F -14.1 °F 68% 30.51 in 10.0 mi Variable 6.9 mph - N/A   Mostly Cloudy
4:53 AM -6.0 °F -16.9 °F -13.0 °F 72% 30.48 in 10.0 mi Variable 4.6 mph - N/A   Mostly Cloudy
5:14 AM -7.1 °F -15.9 °F -14.1 °F 72% 30.37 in 10.0 mi Variable 3.5 mph - N/A   Partly Cloudy
5:53 AM -7.1 °F -18.1 °F -14.1 °F 72% 30.49 in 10.0 mi Variable 4.6 mph - N/A   Clear
6:53 AM -7.1 °F -15.9 °F -13.0 °F 75% 30.50 in 10.0 mi SW 3.5 mph - N/A   Clear
7:53 AM -6.0 °F -18.6 °F -13.0 °F 72% 30.52 in 10.0 mi Variable 5.8 mph - N/A   Clear
8:53 AM -4.0 °F -16.3 °F -11.0 °F 72% 30.56 in 10.0 mi Variable 5.8 mph - N/A   Clear
9:53 AM -0.9 °F -11.0 °F -9.9 °F 66% 30.59 in 10.0 mi Variable 4.6 mph - N/A   Clear
10:53 AM 1.9 °F - -9.0 °F 60% 30.58 in 10.0 mi North - - N/A   Clear
11:53 AM 5.0 °F -6.9 °F -7.1 °F 58% 30.55 in 10.0 mi SW 6.9 mph - N/A   Clear
12:53 PM 6.1 °F -2.8 °F -7.1 °F 55% 30.49 in 10.0 mi Variable 4.6 mph - N/A   Clear
1:53 PM 9.0 °F -2.2 °F -2.9 °F 59% 30.49 in 10.0 mi Variable 6.9 mph - N/A   Clear
2:53 PM 10.9 °F - -4.0 °F 51% 30.48 in 10.0 mi North - - N/A   Clear
3:53 PM 12.0 °F 4.1 °F -2.9 °F 51% 30.48 in 10.0 mi Variable 4.6 mph - N/A   Clear
4:53 PM 10.9 °F 1.4 °F -2.9 °F 54% 30.48 in 10.0 mi Variable 5.8 mph - N/A   Clear
5:53 PM 9.0 °F 2.4 °F -2.9 °F 59% 30.47 in 10.0 mi Variable 3.5 mph - N/A   Clear
6:53 PM 9.0 °F 0.6 °F -2.9 °F 59% 30.47 in 10.0 mi Variable 4.6 mph - N/A   Clear
7:53 PM 8.1 °F -0.5 °F -2.9 °F 61% 30.46 in 10.0 mi SSW 4.6 mph - N/A   Clear
8:53 PM 8.1 °F 1.4 °F -2.9 °F 61% 30.45 in 10.0 mi SSW 3.5 mph - N/A   Clear
9:53 PM 9.0 °F 0.6 °F -2.9 °F 59% 30.45 in 10.0 mi South 4.6 mph - N/A   Partly Cloudy
10:53 PM 9.0 °F - -2.9 °F 59% 30.46 in 10.0 mi Calm Calm - N/A   Clear
11:53 PM 9.0 °F - -2.9 °F 59% 30.46 in 10.0 mi Calm Calm - N/A   Clear